This demonstration page uses our WeatherBlox Daily Observations layout. Learn more.

Left ArrowRight Arrow

39.01783, -85.05884

Hourly Observations for October 2, 2015

Temp ( °F °C ) Dew Point ( °F °C ) Humidity (%) Winds ( mph kmh ) Pressure ( in mb ) Visibility ( mi km ) Precip ( " mm )
12:52 am 00:52 Cloudy 57 13.9 48 8.9 72 72 NNE 20 31 30.10 1019 10 16 N/A
1:52 am 01:52 Cloudy 57 13.9 48 8.9 72 72 NNE 20 31 30.08 1019 10 16 N/A
2:52 am 02:52 Cloudy 57 13.9 48 8.9 72 72 NNE 13 20 30.07 1018 10 16 N/A
3:52 am 03:52 Cloudy 57 13.9 48 8.9 72 72 NNE 18 30 30.05 1018 10 16 N/A
4:20 am 04:20 Cloudy 55 13 48 9 77 77 NE 16 26 30.06 1018 10 16 N/A
4:52 am 04:52 Cloudy 56 13.3 48 8.9 75 75 NE 16 26 30.06 1018 10 16 N/A
5:52 am 05:52 Cloudy 55 12.8 47 8.3 74 74 NE 16 26 30.07 1018 10 16 N/A
6:52 am 06:52 Cloudy 54 12.2 46 7.8 75 75 NE 15 24 30.06 1018 10 16 N/A
7:52 am 07:52 Cloudy 53 11.7 46 7.8 77 77 NNE 17 28 30.06 1018 10 16 N/A
8:52 am 08:52 Cloudy 52 11.1 45 7.2 77 77 NE 17 28 30.08 1019 10 16 N/A
9:52 am 09:52 Cloudy 53 11.7 45 7.2 74 74 NE 17 28 30.09 1019 10 16 N/A
10:52 am 10:52 Cloudy 54 12.2 44 6.7 69 69 NNE 18 30 30.09 1019 10 16 N/A
11:25 am 11:25 Cloudy 54 12 45 7 72 72 NE 20 31 30.09 1019 10 16 N/A
11:52 am 11:52 Cloudy 54 12.2 44 6.7 69 69 NE 17 28 30.08 1019 10 16 N/A
12:52 pm 12:52 Cloudy 56 13.3 44 6.7 65 65 NNE 17 28 30.07 1018 10 16 N/A
1:52 pm 13:52 Cloudy 58 14.4 45 7.2 62 62 NNE 17 28 30.06 1018 10 16 N/A
2:52 pm 14:52 Cloudy 59 15 44 6.7 58 58 NE 22 35 30.04 1017 10 16 N/A
3:52 pm 15:52 Cloudy with Light Rain 57 13.9 45 7.2 64 64 NE 21 33 30.04 1017 10 16 N/A
4:52 pm 16:52 Cloudy 57 13.9 44 6.7 62 62 NE 16 26 30.03 1017 10 16 N/A
5:52 pm 17:52 Cloudy with Light Rain 54 12.2 45 7.2 72 72 NNE 20 31 30.04 1017 10 16 N/A
6:52 pm 18:52 Cloudy with Light Rain 53 11.7 45 7.2 74 74 NE 17 28 30.06 1018 8 13 0.01 0.25
7:52 pm 19:52 Cloudy with Light Rain 50 10 47 8.3 89 89 NE 13 20 30.07 1018 9 14 0.06 1.52
8:52 pm 20:52 Cloudy with Light Rain 49 9.4 47 8.3 93 93 NE 17 28 30.07 1018 5 8 0.03 0.76
9:52 pm 21:52 Cloudy with Light Rain 48 8.9 47 8.3 96 96 NE 17 28 30.07 1018 6 10 0.02 0.51

Powered by AerisWeather